[[{"header":{"parameterUnit":"m.s-1","parameterCategory":1,"la1":30.2991,"la2":30.254,"lo1":-89.0895,"lo2":-89.0444,"dy":0.0017,"dx":0.0017,"nx":28,"ny":28,"refTime":"2024-05-25T21:00:00:Z","depth":0,"parameterNumber":2,"parameterNumberName":"U-component_of_WINDS"},"data":[0,0,0,0,0,0,0,0,0,0,0,0,0,0,0,0,0,0,0,0,0,0,0,0,0,0,0,0,0,0,0,0,0,0,0,0,0,0,0,0,0,0,0,0,0,0,0,0,0,0,0,0,0,0,0,0,0,0,2.8599,2.8599,0,2.8607,2.8607,2.8607,2.853,2.8528,2.8526,2.8524,2.8532,2.8535,2.8537,0,0,0,0,0,0,0,0,0,0,0,0,0,2.8516,2.8517,2.8599,2.8599,2.8599,2.8607,2.8607,2.8607,2.8531,2.8528,2.8526,2.8523,2.8532,2.8534,2.8537,0,0,0,0,0,0,0,0,0,0,0,0,0,2.8541,2.8518,2.8599,2.8562,2.8559,2.8607,2.8607,2.8607,2.8531,2.8528,2.8525,2.8522,2.8531,2.8534,2.8537,2.8622,0,0,2.8547,2.8549,0,0,0,0,0,0,0,0,2.8539,2.8544,2.8567,2.8565,2.8561,2.8564,2.8581,2.8612,2.8532,2.8542,2.8524,2.852,2.8546,2.8548,2.8556,2.8622,2.8622,2.8548,2.855,2.8551,2.8552,0,0,0,0,0,0,0,2.8538,2.8543,2.8602,2.8568,2.8564,2.8544,2.8544,2.8586,2.8562,2.8541,2.8535,2.8537,2.8543,2.8553,2.8556,2.8622,2.8548,2.8551,2.8553,2.8554,2.8755,2.8759,0,0,0,0,0,0,2.8541,2.8542,2.8602,2.8602,2.8542,2.8549,2.8549,2.8567,2.8561,2.8557,2.854,2.8534,2.8549,2.8552,2.8556,2.8652,2.8551,2.8554,2.8556,2.8752,2.8756,2.876,0,0,0,0,0,0,2.854,2.8547,2.8602,2.8571,2.8576,2.8553,2.8574,2.8568,2.8578,2.856,2.8555,2.8554,2.8547,2.8551,2.8605,2.8651,2.8556,2.8559,2.8748,2.8753,2.8758,2.8847,0,0,0,0,0,0,2.8538,2.8547,2.8579,2.8572,2.8578,2.8652,2.8577,2.8571,2.8584,2.8576,2.8573,2.8569,2.8544,2.8601,2.8609,2.8654,2.8561,2.8744,2.875,2.8756,2.8839,2.8854,2.8867,0,0,0,0,0,2.8535,2.8605,2.8581,2.8589,2.8618,2.8655,2.8658,2.8628,2.8588,2.862,2.8608,2.8569,2.8645,2.8607,2.8615,2.8662,2.8741,2.8748,2.8756,2.8833,2.8851,2.8866,0,0,0,0,0,0,2.8618,2.8603,2.8577,2.8647,2.8652,2.8641,2.8681,2.8648,2.8666,2.8657,2.862,2.862,2.868,2.8677,2.8634,2.8742,2.8686,2.8695,2.8742,2.8759,2.8772,2.8771,2.8564,0,0,0,0,0,2.8645,2.8676,2.8661,2.8723,2.8728,2.8704,2.8719,2.8695,2.87,2.8702,2.8694,2.87,2.8724,2.8742,2.8764,2.8839,2.8836,2.8875,2.8889,2.89,2.8908,2.8946,2.8962,2.8785,2.8785,2.8784,0,0,2.87,2.8695,2.8717,2.874,2.8742,2.8774,2.8706,2.8744,2.8767,2.8707,2.8757,2.8752,2.8756,2.882,2.8848,2.8819,2.8957,2.891,2.8919,2.8921,2.8955,2.8972,2.8987,2.879,2.8789,2.8788,0,0,2.8816,2.8817,2.8867,2.887,2.8873,2.8857,2.8869,2.8863,2.8857,2.8907,2.8862,2.8889,2.8933,2.8937,2.8945,2.9061,2.9025,2.907,2.914,2.9177,2.9191,2.9203,2.9242,2.9257,2.9078,2.9078,2.9079,0,2.8883,2.893,2.8898,2.8938,2.8948,2.8895,2.8946,2.895,2.8961,2.8969,2.8937,2.899,2.8989,2.9053,2.9081,2.909,2.9101,2.9069,2.9191,2.9203,2.9214,2.9251,2.9266,2.9084,2.9083,2.9082,2.9082,0,2.9012,2.9046,2.9087,2.9097,2.9112,2.9158,2.9131,2.9151,2.9126,2.9113,2.9163,2.916,2.9179,2.9193,2.917,2.9253,2.9235,2.9198,2.914,2.9237,2.9271,2.9285,2.9091,2.9089,2.9088,2.9086,0,0,2.9181,2.9172,2.9187,2.919,2.919,2.9214,2.9257,2.9275,2.9292,2.9301,2.9334,2.9373,2.9338,2.9347,2.9323,2.9356,2.9446,2.9315,2.9314,2.9337,2.9535,2.9561,2.9578,2.9423,2.9425,2.9427,2.9534,0,2.9292,2.9363,2.9335,2.9408,2.9437,2.9387,2.9424,2.9427,2.9416,2.9438,2.9426,2.9453,2.9406,2.941,2.9441,2.9428,2.9485,2.9421,2.9452,2.9454,2.945,2.9596,2.9624,2.9725,2.9547,2.9549,2.9551,0,2.9431,2.9445,2.9521,2.9513,2.9524,2.9558,2.9571,2.9594,2.9596,2.9586,2.9595,2.9564,2.9604,2.9548,2.9602,2.9559,2.957,2.9566,2.9569,2.9569,2.9507,2.9598,2.9757,2.9771,2.9572,2.957,2.9569,0,2.9544,2.9581,2.9631,2.9635,2.9628,2.9652,2.965,2.9649,2.9662,2.9674,2.9682,2.9699,2.9708,2.9722,2.9696,2.9658,2.9753,2.9695,2.9744,2.9745,2.9765,2.9763,2.9925,2.9776,2.9776,2.9775,2.9775,0,2.967,2.9718,2.9681,2.9711,2.9763,2.973,2.9782,2.9774,2.9774,2.9801,2.976,2.9787,2.9752,2.9775,2.9755,2.9801,2.9807,2.9798,2.9792,2.9801,2.9801,2.9806,2.9797,2.9779,2.9779,2.9778,2.9777,0,2.9803,2.9781,2.9831,2.982,2.9818,2.9856,2.9846,2.9873,2.9859,2.9894,2.9901,2.9878,2.9903,2.9879,2.9903,2.989,2.9951,2.9936,2.995,2.9945,2.9994,2.9989,3.0163,3.0183,3.0023,3.0025,3.0026,0,2.9884,2.9919,2.9911,2.9926,2.9927,2.9952,2.9964,2.9932,2.9947,2.9951,2.9977,2.9999,3.0014,3.0056,3.0042,3.006,3.0043,3.0103,3.0046,3.0053,3.0041,3.0039,3.0041,3.0114,3.0116,3.0117,3.0119,0,3.0029,3.0015,3.0034,3.0049,3.0064,3.0075,3.0082,3.0097,3.0064,3.0082,3.0107,3.0119,3.0142,3.0163,3.0177,3.0174,3.0141,3.0137,3.0149,3.0157,3.0163,3.0158,2.9979,3.0133,3.0131,3.013,3.0129,3.0129,3.0137,3.0165,3.0163,3.0185,3.0186,3.0194,3.0218,3.0206,3.0226,3.0242,3.0223,3.0253,3.0253,3.0267,3.0268,3.0291,3.0265,3.0283,3.0287,3.0292,3.0298,3.0161,3.0293,3.0293,3.0293,3.0292,3.0292,0,3.0277,3.0273,3.0294,3.0304,3.0321,3.0288,3.0294,3.031,3.0337,3.0339,3.0355,3.0382,3.0402,3.039,3.0407,3.0427,3.0412,3.0432,3.0429,3.0429,3.032,3.0307,3.0444,3.0444,3.0444,3.0444,3.0444,3.0444,3.0352,3.0397,3.0383,3.0429,3.0424,3.0452,3.0458,3.0464,3.0466,3.0498,3.0514,3.0506,3.0502,3.0518,3.0535,3.053,3.0538,3.0563,3.0553,3.0452,3.0437,3.0422,3.041,3.0566,3.0566,3.0659,3.066,3.0661]},{"header":{"parameterUnit":"m.s-1","parameterCategory":1,"la1":30.2991,"la2":30.254,"lo1":-89.0895,"lo2":-89.0444,"dy":0.0017,"dx":0.0017,"nx":28,"ny":28,"refTime":"2024-05-25T21:00:00:Z","depth":0,"parameterNumber":3,"parameterNumberName":"V-component_of_WINDS"},"data":[0,0,0,0,0,0,0,0,0,0,0,0,0,0,0,0,0,0,0,0,0,0,0,0,0,0,0,0,0,0,0,0,0,0,0,0,0,0,0,0,0,0,0,0,0,0,0,0,0,0,0,0,0,0,0,0,0,0,4.5966,4.5967,0,4.6011,4.6012,4.6012,4.5943,4.5941,4.5938,4.5936,4.5981,4.5984,4.5987,0,0,0,0,0,0,0,0,0,0,0,0,0,4.5817,4.582,4.5966,4.5967,4.5967,4.6011,4.6012,4.6012,4.5944,4.5941,4.5938,4.5935,4.598,4.5984,4.5988,0,0,0,0,0,0,0,0,0,0,0,0,0,4.5874,4.5821,4.5966,4.5938,4.5936,4.6011,4.6012,4.6012,4.5944,4.5941,4.5937,4.5934,4.5978,4.5983,4.5988,4.6092,0,0,4.6004,4.6006,0,0,0,0,0,0,0,0,4.5871,4.5879,4.5942,4.594,4.5938,4.5968,4.5975,4.6039,4.5945,4.5941,4.5936,4.5932,4.5979,4.5984,4.6,4.6094,4.6096,4.6004,4.6007,4.601,4.6011,0,0,0,0,0,0,0,4.5867,4.5877,4.5984,4.5943,4.5941,4.5922,4.5927,4.5987,4.598,4.5941,4.5936,4.5943,4.5978,4.5996,4.6001,4.6096,4.6004,4.6009,4.6012,4.6014,4.6274,4.6278,0,0,0,0,0,0,4.5867,4.5874,4.5982,4.5985,4.5895,4.5928,4.5933,4.5962,4.5979,4.5978,4.5946,4.5939,4.5989,4.5995,4.6002,4.6123,4.601,4.6014,4.6017,4.6271,4.6275,4.6279,0,0,0,0,0,0,4.5864,4.5877,4.5981,4.5928,4.594,4.5934,4.5968,4.5965,4.5983,4.5982,4.598,4.5966,4.5986,4.5995,4.607,4.6124,4.6017,4.6021,4.6266,4.6272,4.6277,4.6367,0,0,0,0,0,0,4.586,4.5876,4.5917,4.593,4.5943,4.6049,4.5971,4.5968,4.5992,4.5984,4.6001,4.6,4.5984,4.6062,4.6075,4.6129,4.6025,4.6261,4.6269,4.6276,4.6359,4.6375,4.6389,0,0,0,0,0,4.5855,4.594,4.5919,4.5933,4.5994,4.6052,4.606,4.604,4.5997,4.6036,4.6036,4.5999,4.6116,4.6071,4.6084,4.6141,4.6258,4.6267,4.6275,4.6353,4.6372,4.6389,0,0,0,0,0,0,4.5934,4.5942,4.5918,4.6011,4.6031,4.604,4.609,4.6061,4.6094,4.6085,4.6059,4.6063,4.6143,4.6149,4.6098,4.624,4.6179,4.6191,4.6234,4.6252,4.6267,4.6264,4.603,0,0,0,0,0,4.5962,4.601,4.6013,4.6095,4.6106,4.6096,4.6121,4.6104,4.6124,4.6132,4.6137,4.6157,4.6197,4.6225,4.6263,4.6359,4.6361,4.6405,4.6419,4.6432,4.6442,4.6492,4.6511,4.6308,4.6308,4.6308,0,0,4.6021,4.6031,4.6063,4.6111,4.6125,4.6173,4.6104,4.6159,4.6194,4.614,4.6211,4.6215,4.6235,4.6321,4.6359,4.6328,4.6499,4.6443,4.6452,4.6456,4.6503,4.6522,4.6539,4.6314,4.6313,4.6312,0,0,4.6153,4.6166,4.6235,4.6249,4.6271,4.6263,4.628,4.6293,4.6293,4.6364,4.6323,4.6364,4.6436,4.6451,4.6469,4.6604,4.6571,4.6617,4.6695,4.6743,4.6759,4.6774,4.6821,4.6839,4.6627,4.6628,4.6628,0,4.6224,4.6296,4.6273,4.6331,4.6352,4.6304,4.6373,4.6388,4.6421,4.6436,4.6401,4.6488,4.6499,4.6587,4.662,4.6636,4.6652,4.6615,4.6759,4.6773,4.6786,4.6831,4.6849,4.6633,4.6632,4.6632,4.6631,0,4.6381,4.6432,4.6484,4.6517,4.6544,4.6607,4.6592,4.6622,4.6601,4.6597,4.6668,4.6679,4.6717,4.6736,4.6718,4.6821,4.6802,4.6764,4.6702,4.6811,4.6853,4.687,4.6641,4.6639,4.6637,4.6636,0,0,4.6567,4.6584,4.6604,4.6617,4.6636,4.6674,4.6733,4.6771,4.6797,4.682,4.6868,4.6928,4.6893,4.6912,4.6894,4.6937,4.7042,4.6893,4.6893,4.692,4.7156,4.7185,4.7205,4.702,4.7024,4.7026,4.7154,0,4.6698,4.6801,4.6781,4.6881,4.6927,4.6881,4.6932,4.6949,4.6946,4.6983,4.6979,4.7022,4.6972,4.6983,4.7023,4.7021,4.7089,4.7011,4.7064,4.7066,4.7061,4.7227,4.7258,4.7379,4.717,4.7173,4.7175,0,4.6866,4.6895,4.7,4.701,4.7028,4.7075,4.7106,4.7143,4.7159,4.7154,4.7175,4.7148,4.7205,4.7142,4.722,4.7167,4.7187,4.7189,4.7193,4.7198,4.7128,4.7236,4.7417,4.7435,4.7201,4.7199,4.7197,0,4.699,4.7056,4.7126,4.7139,4.7153,4.7186,4.7193,4.7206,4.7229,4.7256,4.7271,4.7304,4.7322,4.7348,4.733,4.7286,4.741,4.7346,4.7407,4.7407,4.7436,4.7434,4.7623,4.7449,4.7448,4.7448,4.7448,0,4.7139,4.7205,4.7182,4.7226,4.7297,4.7272,4.7343,4.7345,4.7356,4.7398,4.736,4.74,4.7374,4.7412,4.7398,4.7464,4.7472,4.7469,4.7464,4.7472,4.7473,4.7486,4.7477,4.7453,4.7452,4.7451,4.745,0,4.7291,4.7278,4.7352,4.7358,4.7361,4.7413,4.7418,4.7457,4.745,4.7504,4.7515,4.7504,4.7546,4.7531,4.7575,4.7566,4.765,4.7634,4.7645,4.7641,4.7702,4.7696,4.7905,4.7931,4.774,4.7742,4.7744,0,4.7387,4.7437,4.7447,4.7473,4.7482,4.7524,4.7547,4.7523,4.7548,4.757,4.7607,4.7645,4.7675,4.7744,4.7739,4.7773,4.7758,4.7828,4.7763,4.7769,4.7758,4.7756,4.776,4.7842,4.7844,4.7846,4.7847,0,4.7559,4.755,4.7585,4.7617,4.7645,4.767,4.769,4.7713,4.769,4.772,4.7762,4.7785,4.783,4.7868,4.7898,4.7903,4.7872,4.7868,4.7884,4.7893,4.7896,4.7895,4.768,4.7863,4.7862,4.7861,4.786,4.7859,4.7686,4.7727,4.774,4.778,4.7792,4.7812,4.7849,4.7847,4.7882,4.7917,4.79,4.7948,4.7961,4.7998,4.8008,4.8045,4.8017,4.804,4.8046,4.8052,4.806,4.789,4.805,4.8049,4.8049,4.8049,4.8048,0,4.7856,4.7861,4.7898,4.7927,4.7958,4.7925,4.7945,4.7973,4.8016,4.8031,4.8061,4.8108,4.8145,4.8142,4.8176,4.8205,4.8192,4.8215,4.8213,4.8214,4.8083,4.8066,4.8226,4.8226,4.8226,4.8226,4.8226,4.8225,4.7948,4.8015,4.8007,4.8079,4.8084,4.8132,4.8146,4.8163,4.8175,4.823,4.826,4.8258,4.8265,4.8298,4.833,4.8328,4.8342,4.8371,4.8364,4.8241,4.8224,4.8207,4.8191,4.8374,4.8374,4.8492,4.8493,4.8494]}]]